DECAYED

SL-16 DEB, 22546 (Decayed)

Orbit data source: Space-Track

SL-16 DEB, 22546 was space debris in LEO originally from a launch on Fri, 25 Dec 1992 UTC launched from the Tyuratam Missile And Space Complex (TTMTR). Debris objects in space refer to the collection of defunct objects orbiting the Earth. Examples of debris include non-operational satellites, rocket bodies, and fragments generated from explosions, collisions, or faulty payload assembly.

Not visible in the next 10 days
Identifier
22546, 1992-093HG
Orbit
Decayed
Country
Flag of CISCIS
Related business
Manufacturer
Unknown
Mission
Decayed spacecraft
Bus & Motor
Unknown
Mass
Unknown
Launch date (UTC)
1992-12-25 (33 years ago)
Launch vehicle
Unknown
Launch site
Tyuratam Missile And Space Complex (TTMTR)
Object type
Payload
Rocket body
Debris
Shape & HBR
Unknown shape, 0.1 m
Radar Cross Section
Small (<0.1 m²)

Expand to show TLE details & history
Last TLE update: 8 months ago

TLE from 8 months ago
0 SL-16 DEB
1 22546U 92093HG  25059.96498580  .09454563  18839+0  36030-1 0  9999
2 22546  71.3198  51.1650 0011580 164.1157 196.0426 15.94164673658483
Epoch: 2025-02-28T23:09Z
TLE epoch observation values (Epoch: 2025-02-28T23:09:34.773Z)
Latitude
-0.00005°
Longitude
-95.24816°
Altitude
300.688 km
Speed
7.723 km/s
True Right ascension
03h 24m 39s
True Declination
0° 00' 00"
Sunlit
Object was in daylight at epoch
Visualization orbit readout
Latitude
Unknown
Longitude
Unknown
Altitude
Unknown
Speed
Unknown
Apparent Right ascension
Unknown
Apparent Declination
Unknown
Sunlit
N/A
Visualization observer readout
Local Sidereal Time
10:26:55
Azimuth
Unknown
Elevation
Unknown
Doppler factor
Unknown
Orbital elements
Apogee altitude
296.082 km
Perigee altitude
280.642 km
Semi-major axis
6,666.499 km
Eccentricity
0.00116
Inclination
71.3198°
RAAN
51.165°
Arg. of periapsis
164.1157°
True anomaly
196.00598°
Mean anomaly
196.0426°
Eccentric anomaly
196.02428°
Mean motion
3.98746 °/min
Orbital period
90.28 mins
BSTAR
0.03603
Loading maneuver chart data...
Computing Atmospheric mass density...

Documentation

Showing up to 5 results
|